Leesburg, FL

1:09 PM EST on February 11, 2016 (GMT -0500)
Leesburg Regional

Weather History for KLEE - February, 2013

Change the Weather History Date:

Monday, February 18, 2013

  Actual Average Record
Temperature  
Mean Temperature 51 °F -  
Max Temperature 68 °F 72 °F 86 °F (1990)
Min Temperature 34 °F 49 °F 33 °F (1977)
Degree Days  
Heating Degree Days 14    
Growing Degree Days 1 (Base 50)    
Moisture  
Dew Point 34 °F    
Average Humidity 52    
Maximum Humidity 79    
Minimum Humidity 26    
Precipitation  
Precipitation 0.00 in - - ()
Sea Level Pressure  
Sea Level Pressure 30.33 in    
Wind  
Wind Speed 6 mph (East)    
Max Wind Speed 13 mph    
Max Gust Speed 16 mph    
Visibility 10 miles    
Events      
Averages and records for this station are not official NWS values.
T = Trace of Precipitation, MM = Missing Value Source: NWS Daily Summary

Daily Weather History Graph

Daily Weather History Graph

Search for Another Location

Airport or City:

Trip Planner

Search our weather history database for the weather conditions in past years. The results will help you decide how hot, cold, wet, or windy it might be!

Date:

Astronomy

Feb. 18, 2013 Rise Set
Actual Time 7:02 AM EST 6:19 PM EST
Civil Twilight 6:38 AM EST 6:43 PM EST
Nautical Twilight 6:11 AM EST 7:11 PM EST
Astronomical Twilight 5:43 AM EST 7:38 PM EST
Moon 12:17 PM EST (2/18) 1:28 AM EST (2/18)
Length of Visible Light 12h 04m
Length of Day
11h 16m
First Quarter, 58% of the Moon is Illuminated
Feb 18
First Quarter
Feb 25
Full
Mar 4
Last Quarter
Mar 11
New
Mar 19
First Quarter

Hourly Weather History & Observations

Time (EST) Temp. Windchill Dew Point Humidity Pressure Visibility Wind Dir Wind Speed Gust Speed Precip Events Conditions
12:53 AM 39.0 °F 35.7 °F 32.0 °F 76% 30.38 in 10.0 mi North 4.6 mph - N/A   Clear
1:53 AM 36.0 °F 31.1 °F 30.0 °F 79% 30.38 in 10.0 mi North 5.8 mph - N/A   Clear
2:53 AM 36.0 °F - 26.1 °F 67% 30.38 in 10.0 mi Calm Calm - N/A   Clear
3:53 AM 34.0 °F - 27.0 °F 75% 30.37 in 10.0 mi Calm Calm - N/A   Clear
4:53 AM 35.1 °F - 26.1 °F 70% 30.37 in 10.0 mi Calm Calm - N/A   Clear
5:53 AM 37.0 °F 33.3 °F 24.1 °F 59% 30.37 in 10.0 mi NE 4.6 mph - N/A   Clear
7:53 AM 41.0 °F 39.0 °F 27.0 °F 57% 30.39 in 10.0 mi NE 3.5 mph - N/A   Clear
9:53 AM 54.0 °F - 19.9 °F 26% 30.41 in 10.0 mi NNE 5.8 mph - N/A   Clear
10:53 AM 57.0 °F - 27.0 °F 32% 30.41 in 10.0 mi East 9.2 mph - N/A   Clear
11:53 AM 60.1 °F - 28.9 °F 31% 30.39 in 10.0 mi Variable 5.8 mph - N/A   Clear
12:53 PM 64.9 °F - 33.1 °F 31% 30.35 in 10.0 mi ESE 12.7 mph - N/A   Clear
1:53 PM 66.0 °F - 34.0 °F 30% 30.31 in 10.0 mi ESE 9.2 mph - N/A   Clear
2:53 PM 68.0 °F - 35.1 °F 30% 30.30 in 10.0 mi SE 9.2 mph 16.1 mph N/A   Clear
3:53 PM 66.9 °F - 37.9 °F 34% 30.29 in 10.0 mi East 9.2 mph - N/A   Scattered Clouds
4:53 PM 66.9 °F - 39.0 °F 36% 30.29 in 10.0 mi ESE 8.1 mph - N/A   Mostly Cloudy
5:53 PM 63.0 °F - 42.1 °F 46% 30.29 in 10.0 mi ESE 9.2 mph - N/A   Mostly Cloudy
6:53 PM 61.0 °F - 43.0 °F 52% 30.28 in 10.0 mi East 10.4 mph - N/A   Overcast
7:53 PM 59.0 °F - 44.1 °F 58% 30.28 in 10.0 mi East 9.2 mph - N/A   Clear
8:53 PM 57.9 °F - 44.1 °F 60% 30.29 in 10.0 mi East 6.9 mph - N/A   Mostly Cloudy
9:53 PM 57.0 °F - 45.0 °F 64% 30.26 in 10.0 mi East 9.2 mph - N/A   Clear
10:53 PM 57.0 °F - 46.9 °F 69% 30.25 in 10.0 mi ESE 10.4 mph - N/A   Clear
11:53 PM 55.9 °F - 46.0 °F 69% 30.25 in 10.0 mi East 4.6 mph - N/A   Clear